Regional Weather Roundup
Issued by NWS

Home | Current Version | Previous Version | Text Only | Print | Product List | Glossary On
Versions: 1 2 3 4 5 6 7 8 9 10 11 12 13 14 15 16 17 18 19 20 21 22 23 24 25 26 27 28 29 30 31 32 33 34 35 36 37 38 39 40 41 42 43 44 45 46 47 48 49 50
000
ASUS43 KLSX 230057
RWRMO

WEATHER SUMMARY FOR MISSOURI
NATIONAL WEATHER SERVICE SPRINGFIELD MO
800 PM CDT THU OCT 22 2020

NOTE: "FAIR" INDICATES FEW OR NO CLOUDS BELOW 12,000 FEET WITH NO
       SIGNIFICANT WEATHER AND/OR OBSTRUCTIONS TO VISIBILITY.
       CURRENT SKY AND/OR WEATHER CONDITIONS ARE NOT AVAILABLE FOR
       CHILLICOTHE AND FARMINGTON.

MOZ001>031-035>038-043-044-053-054-230200-
...NORTHERN AND WESTERN MISSOURI...

CITY           SKY/WX    TMP DP  RH WIND       PRES   REMARKS
KANSAS CTY INT CLOUDY    62  53  72 N14       29.85R
LEE`S SUMMIT   MOCLDY    77  61  57 S12       29.85R
ST JOSEPH      CLOUDY    48  46  93 N18G26    29.90R
CHILLICOTHE      N/A     77  60  55 S8        29.81R

$$
MOZ066>068-077>081-088>096-101>105-230200-
...SOUTHWEST MISSOURI...

CITY           SKY/WX    TMP DP  RH WIND       PRES   REMARKS
SPRINGFIELD    CLEAR     73  60  63 S13       29.91R
JOPLIN         CLEAR     76  60  57 S10       29.86R
BRANSON        CLEAR     72  63  73 S7        29.96R

$$
MOZ032>034-039>042-045>050-055>058-069>072-230200-
...CENTRAL MISSOURI...

CITY           SKY/WX    TMP DP  RH WIND       PRES   REMARKS
COLUMBIA       NOT AVBL
JEFFERSON CITY CLEAR     78  58  49 S10       29.87R
ROLLA          CLEAR     73  60  63 S14G20    29.93R
SEDALIA        CLEAR     73  57  57 S8        29.86R
WARRENSBURG    CLEAR     72  59  64 S5        29.85R

$$
MOZ051-052-059>065-230200-
...EAST CENTRAL MISSOURI...

CITY           SKY/WX    TMP DP  RH WIND       PRES   REMARKS
ST LOUIS INTL  CLEAR     77  61  57 S13       29.93R

$$
MOZ072>076-082>087-097>100-106>115-230200-
...SOUTH CENTRAL AND SOUTHEAST MISSOURI...

CITY           SKY/WX    TMP DP  RH WIND       PRES   REMARKS
CAPE GIRARDEAU CLEAR     72  63  73 S6        29.99R
POPLAR BLUFF   CLEAR     72  63  73 S6        29.98R
WEST PLAINS    CLEAR     73  62  68 S7        29.98S

$$




USA.gov is the U.S. government's official web portal to all federal, state and local government web resources and services.